This is the latest recevied weather packets stored in our database for station/object KF0JJO. If no packets are shown the sender has not sent any weather packets the latest 10 day(s).
| Time | Temp. | Humidity | Pressure | Rain* | Wind** | Luminosity | Snow |
|---|---|---|---|---|---|---|---|
| 1777881874 | 13.33° C | 40% | 1029.7 hPa | 0 mm | - | 0 W/m² | - |
| 1777881571 | 13.33° C | 40% | 1029.7 hPa | 0 mm | - | 0 W/m² | - |
| 1777881268 | 13.33° C | 39% | 1029.8 hPa | 0 mm | - | 0 W/m² | - |
| 1777880965 | 12.78° C | 41% | 1029.8 hPa | 0 mm | - | 0 W/m² | - |
| 1777880664 | 13.33° C | 41% | 1029.9 hPa | 0 mm | - | 0 W/m² | - |
| 1777880361 | 13.33° C | 41% | 1029.8 hPa | 0 mm | - | 0 W/m² | - |
| 1777880060 | 13.33° C | 41% | 1030 hPa | 0 mm | - | 0 W/m² | - |
| 1777879758 | 12.78° C | 42% | 1030.2 hPa | 0 mm | - | 0 W/m² | - |
| 1777879454 | 12.78° C | 42% | 1030.3 hPa | 0 mm | - | 0 W/m² | - |
| 1777879151 | 13.33° C | 42% | 1030.2 hPa | 0 mm | - | 0 W/m² | - |
| 1777878848 | 12.78° C | 42% | 1030.2 hPa | 0 mm | - | 0 W/m² | - |
| 1777878546 | 12.78° C | 43% | 1030.4 hPa | 0 mm | - | 0 W/m² | - |
| 1777878242 | 12.78° C | 42% | 1030.4 hPa | 0 mm | - | 0 W/m² | - |
| 1777877938 | 12.78° C | 44% | 1030.5 hPa | 0 mm | - | 0 W/m² | - |
| 1777877635 | 12.78° C | 44% | 1030.7 hPa | 0 mm | - | 0 W/m² | - |
| 1777877331 | 11.67° C | 45% | 1030.8 hPa | 0 mm | - | 0 W/m² | - |
| 1777877029 | 11.11° C | 49% | 1030.9 hPa | 0 mm | - | 0 W/m² | - |
| 1777876727 | 10.56° C | 51% | 1031 hPa | 0 mm | - | 0 W/m² | - |
| 1777876424 | 10° C | 54% | 1031.3 hPa | 0 mm | - | 0 W/m² | - |
| 1777876120 | 10° C | 57% | 1031.2 hPa | 0 mm | - | 0 W/m² | - |
| 1777875816 | 10° C | 58% | 1031.4 hPa | 0 mm | - | 0 W/m² | - |
| 1777875512 | 10° C | 57% | 1031.4 hPa | 0 mm | - | 0 W/m² | - |
| 1777875209 | 10° C | 56% | 1031.4 hPa | 0 mm | - | 0 W/m² | - |
| 1777874906 | 10° C | 56% | 1031.6 hPa | 0 mm | - | 0 W/m² | - |
| 1777874602 | 10° C | 55% | 1031.8 hPa | 0 mm | - | 0 W/m² | - |
* Rain latest hour (hover to see other rain measurements)
** Current wind speed in m/s (hover to see current wind gust speed)